Regional Weather Roundup
Issued by NWS

Home | Current Version | Previous Version | Graphics & Text | Print | Product List | Glossary On
Versions: 1 2 3 4 5 6 7 8 9 10 11 12 13 14 15 16 17 18 19 20 21 22 23 24 25 26 27 28 29 30 31 32 33 34 35 36 37 38 39 40 41 42 43 44 45 46 47 48 49 50
000
ASUS45 KBOU 140010
RWRCO

WEATHER ROUNDUP FOR COLORADO
NATIONAL WEATHER SERVICE DENVER/BOULDER CO
500 PM MST WED DEC 13 2017

NOTE: "FAIR" INDICATES FEW OR NO CLOUDS BELOW 12000 FEET WITH NO
SIGNIFICANT WEATHER AND/OR OBSTRUCTIONS TO VISIBILITY.

COZ001>005-013-030-031-140100-
...NORTHWEST COLORADO...

CITY           SKY/WX    TMP DP  RH WIND       PRES   REMARKS
CRAIG          CLOUDY    35  25  66 SE3       30.06S
HAYDEN         CLOUDY    36  21  54 E3        30.09R
MEEKER         CLOUDY    41  11  29 CALM      30.04S
RABBIT EARS PA CLOUDY    27   5  39 W8        30.10F WCI  18
STEAMBOAT SPGS CLOUDY    33  23  65 NW3       30.08R
WALDEN         CLOUDY    34   9  35 W5        30.08R WCI  30
$$

COZ006>008-011-140100-
...WEST CENTRAL VALLEYS...

CITY           SKY/WX    TMP DP  RH WIND       PRES   REMARKS
GRAND JUNCTION FAIR      40  15  36 W5        30.03F
MONTROSE       CLOUDY    43  12  28 N6        30.05F
EAGLE          CLOUDY    31  19  61 W3        30.08F
RIFLE          CLOUDY    38  15  39 CALM      30.04F
DELTA          CLOUDY    45  12  26 SW5       30.03F
NUCLA          FAIR      52   5  15 CALM      30.08F
$$

COZ017>023-064>068-140100-
...SOUTHWEST COLORADO...

CITY           SKY/WX    TMP DP  RH WIND       PRES   REMARKS
DURANGO        FAIR      43   6  21 SW5       30.05F
CORTEZ         FAIR      37   4  25 CALM      30.06F
PAGOSA SPRINGS FAIR      44   1  16 CALM      30.08F
TELLURIDE      CLOUDY    41   3  20 W13G20    30.11S
WOLF CREEK PAS FAIR      28   0  29 SW13      30.23F WCI  18
$$

COZ009-010-012-014-032>034-037-058>063-140100-
...CENTRAL COLORADO...

CITY           SKY/WX    TMP DP  RH WIND       PRES   REMARKS
ASPEN          CLOUDY    36  14  40 S3        30.04F
BUENA VISTA    CLOUDY    48   5  17 W7        30.01F
COPPER MTN     NOT AVBL
BERTHOUD PASS  CLOUDY    21  10  63 NW24G35   30.11F WCI   4
COTTONWOOD PAS FAIR      45   7  21 NW6G18    30.07F
GUNNISON       FAIR      36  10  34 CALM      30.06F
KREMMLING      CLOUDY    34  23  64 CALM      30.07F
LEADVILLE      CLOUDY    33   5  30 N6        30.08F WCI  28
MONARCH PASS   FAIR      28   3  34 W29G35    30.25F WCI  13
SALIDA         FAIR      48   5  17 S7        30.07S
SUNLIGHT       CLOUDY    32   9  37 SW8       30.16F WCI  25
WILKERSON PASS FAIR      32   0  25 N5        30.15R WCI  27
$$

COZ069>075-140100-
...SAN LUIS VALLEY/SANGRE DE CRISTO MOUNTAINS...

CITY           SKY/WX    TMP DP  RH WIND       PRES   REMARKS
ALAMOSA        CLOUDY    42   2  18 CALM      30.03S
DEL NORTE      CLOUDY    42   5  21 CALM      30.06S
LA VETA PASS   FAIR      34   1  25 SW10G18     N/A  WCI  26
SAGUACHE       FAIR      36   5  27 E5        30.05F
$$

COZ035-036-038>040-140100-
...NORTHERN COLORADO FRONT RANGE...

CITY           SKY/WX    TMP DP  RH WIND       PRES   REMARKS
DENVER INTL AP MOCLDY    42  10  27 E6        30.03R
DMNS CITY PARK NOT AVBL
AURORA         MOCLDY    41   9  27 E7        30.04R
FRONT RANGE AP MOCLDY    43  10  26 E12G17    30.04S
ERIE MUNI ARPT CLOUDY    47   8  20 CALM      30.07S
BOULDER MUN AP CLOUDY    46  12  25 CALM      30.02R
CENTENNIAL     MOCLDY    42  11  28 E7        30.03R
BROOMFIELD     MOCLDY    46  10  23 E8        30.03S
FORT COLLINS   CLOUDY    46  14  27 S6        30.03R
LONGMONT       CLOUDY    47  12  23 E5        30.04S
$$

COZ041-046-047-076>085-087-088-140100-
...PIKES PEAK/PALMER DIVIDE AND SOUTHERN FOOTHILLS...

CITY           SKY/WX    TMP DP  RH WIND       PRES   REMARKS
COLO. SPRINGS  FAIR      41   7  24 SE7       30.05R
A. F. ACADEMY  FAIR      39   5  24 CALM      30.03S
SCHRIEVER AFB  FAIR      37   6  27 CALM      30.05R
CHEYENNE MTN   FAIR      38   6  25 S7        29.99R
ELLICOTT         N/A    N/A N/A N/A CALM      30.04R
FALCON         FAIR      35   2  25 S3        30.06S
FORT CARSON    FAIR      41   7  24 S5        30.02R
LIMON          FAIR      32   9  38 N3        30.03S
MONUMENT HILL  FAIR      32   9  37 SE6       30.06S WCI  26
CANON CITY     FAIR      41  10  28 E6        30.02R
WALSENBURG     CLOUDY    46   9  21 E7        30.02S
TRINIDAD       FAIR      42   9  25 E6        30.02S
$$

COZ042>045-048>051-090-091-140100-
...NORTHEAST COLORADO...

CITY           SKY/WX    TMP DP  RH WIND       PRES   REMARKS
GREELEY ARPT   CLOUDY    45  14  28 NE9       30.03S
AKRON          CLOUDY    44  12  27 N17       30.01S
BURLINGTON     FAIR      43  14  31 NW8       30.01R
WRAY           FAIR      43  14  31 N9        30.00S
YUMA           CLOUDY    43  14  31 N12       29.99S
STERLING       CLOUDY    46  18  31 N8        30.00S
HOLYOKE        FAIR      41  16  36 NW9       30.01R
FORT MORGAN    CLOUDY    45  11  25 N10       30.03R
$$

COZ086-089-092>099-140100-
...SOUTHEAST COLORADO...

CITY           SKY/WX    TMP DP  RH WIND       PRES   REMARKS
PUEBLO         CLOUDY    50  10  20 SE7       30.01S
LA JUNTA       FAIR      49  11  21 CALM      30.01S
LAMAR          FAIR      47  13  25 NE6       29.99R
SPRINGFIELD      N/A     41  14  33 NW6       30.01S
$$



USA.gov is the U.S. government's official web portal to all federal, state and local government web resources and services.